GW6002 Weather Reports


time (UTC)temp
C
wind
direction
speed
KPH
gust
KPH
rain 1hr
cm
rain 24hr
cm
rain mn
cm
humidity
%
barometer
mb
20260507065924 11 348 17.7 20.9 0.00 0.43 0.43 95 1006.4
20260507065421 11 331 14.5 20.9 0.13 0.43 0.43 95 1006.6
20260507064918 11 341 11.3 14.5 0.43 0.43 0.43 95 1006.4
20260507064416 11 21 9.7 12.9 0.30 0.41 0.41 95 1006.0
20260507063914 11 344 6.4 9.7 0.00 0.36 0.36 94 1006.2
20260507063411 11 13 9.7 12.9 0.18 0.36 0.36 94 1005.7
20260507062908 11 7 8.0 9.7 1.07 0.36 0.36 93 1006.4
20260507062405 11 13 11.3 11.3 1.98 0.33 0.33 92 1006.0
20260507061902 11 317 9.7 17.7 1.07 0.18 0.18 91 1006.9
20260507061400 12 237 24.1 27.4 0.00 0.00 0.00 88 1007.1
20260507060858 12 272 8.0 9.7 0.00 0.00 0.00 88 1005.8
20260507060355 12 11 1.6 4.8 0.00 0.00 0.00 88 1004.9
20260507055852 12 40 0.0 6.4 0.00 0.00 0.00 89 1004.9
20260507055346 11 47 3.2 6.4 0.00 0.00 0.00 89 1005.0
20260507054844 11 37 4.8 9.7 0.00 0.00 0.00 90 1004.9
20260507054340 11 18 6.4 6.4 0.00 0.00 0.00 90 1005.1
20260507053837 11 18 4.8 4.8 0.00 0.00 0.00 90 1005.1
20260507053335 11 47 0.0 1.6 0.00 0.00 0.00 90 1005.4
20260507052833 11 43 3.2 6.4 0.00 0.00 0.00 90 1005.2
20260507052330 11 44 1.6 3.2 0.00 0.00 0.00 91 1005.5
20260507051827 11 34 0.0 1.6 0.00 0.00 0.00 92 1005.4
20260507051325 10 55 0.0 1.6 0.00 0.00 0.00 93 1005.3
20260507050822 10 76 0.0 0.0 0.00 0.00 0.00 94 1005.3
20260507050318 10 120 0.0 3.2 0.00 0.00 0.00 94 1005.6
20260507045815 10 121 1.6 4.8 0.00 0.00 0.00 94 1005.8
20260507045311 10 103 4.8 6.4 0.00 0.00 0.00 95 1005.6
20260507044809 10 140 1.6 3.2 0.00 0.00 0.00 95 1005.8
20260507044305 10 133 0.0 1.6 0.00 0.00 0.00 96 1006.0
20260507043801 9 129 0.0 3.2 0.00 0.00 0.00 96 1006.1
20260507043258 9 106 0.0 1.6 0.00 0.00 0.00 96 1005.8
20260507042754 9 145 0.0 0.0 0.00 0.00 0.00 96 1006.2
20260507042249 9 110 0.0 4.8 0.00 0.00 0.00 96 1006.0
20260507041747 8 139 0.0 1.6 0.00 0.00 0.00 96 1006.0
20260507041244 9 130 0.0 4.8 0.00 0.00 0.00 96 1006.1
20260507040741 9 82 0.0 0.0 0.00 0.00 0.00 97 1006.1
20260507040237 8 82 0.0 0.0 0.00 0.00 0.00 97 1005.9
20260507035733 8 108 0.0 0.0 0.00 0.00 0.00 97 1005.9
20260507035228 8 150 0.0 1.6 0.00 0.00 0.00 97 1006.1
20260507034726 7 21 0.0 0.0 0.00 0.00 0.00 97 1006.1
20260507034223 7 21 4.8 4.8 0.00 0.00 0.00 97 1005.7
20260507033721 7 21 0.0 0.0 0.00 0.00 0.00 97 1005.7
20260507033218 7 21 0.0 0.0 0.00 0.00 0.00 97 1006.0
20260507032716 6 22 0.0 0.0 0.00 0.00 0.00 97 1005.9
20260507032211 6 21 0.0 0.0 0.00 0.00 0.00 97 1006.1
20260507031708 6 21 0.0 0.0 0.00 0.00 0.00 97 1006.0
20260507031205 6 21 3.2 4.8 0.00 0.00 0.00 97 1005.7
20260507030702 6 8 4.8 4.8 0.00 0.00 0.00 97 1005.9
20260507030200 6 8 4.8 4.8 0.00 0.00 0.00 97 1005.9
20260507025656 6 7 0.0 0.0 0.00 0.00 0.00 97 1006.0
20260507025153 7 7 0.0 0.0 0.00 0.00 0.00 97 1006.0
20260507024652 6 7 0.0 0.0 0.00 0.00 0.00 97 1006.1
20260507024148 7 7 0.0 0.0 0.00 0.00 0.00 97 1006.1
20260507023644 7 7 0.0 0.0 0.00 0.00 0.00 97 1006.1
20260507023142 7 8 0.0 0.0 0.00 0.00 0.00 97 1006.2
20260507022638 7 7 0.0 0.0 0.00 0.00 0.00 97 1006.2
20260507022134 6 7 0.0 0.0 0.00 0.00 0.00 97 1006.1
20260507021630 6 7 0.0 0.0 0.00 0.00 0.00 97 1006.1
20260507021126 6 7 0.0 0.0 0.00 0.00 0.00 97 1005.9
20260507020625 6 7 0.0 0.0 0.00 0.00 0.00 97 1006.0
20260507020120 6 7 0.0 0.0 0.00 0.00 0.00 97 1005.7
20260507015619 6 7 0.0 0.0 0.00 0.00 0.00 97 1006.0
20260507015116 6 7 0.0 0.0 0.00 0.00 0.00 97 1005.8
20260507014612 6 7 0.0 0.0 0.00 0.00 0.00 96 1005.7
20260507014108 6 7 0.0 0.0 0.00 0.00 0.00 97 1005.8
20260507013605 6 7 0.0 0.0 0.00 0.00 0.00 96 1005.8
20260507013102 7 7 0.0 0.0 0.00 0.00 0.00 96 1005.7
20260507012600 7 7 0.0 0.0 0.00 0.00 0.00 97 1005.7
20260507012055 7 7 0.0 0.0 0.00 0.00 0.00 97 1005.7
20260507011553 7 7 0.0 0.0 0.00 0.00 0.00 96 1005.6
20260507011049 7 7 0.0 0.0 0.00 0.00 0.00 96 1005.8
20260507010544 7 7 0.0 0.0 0.00 0.00 0.00 96 1005.7
20260507010040 7 7 0.0 0.0 0.00 0.00 0.00 97 1005.6
20260507005538 7 7 0.0 0.0 0.00 0.00 0.00 96 1005.4
20260507005034 7 7 0.0 0.0 0.00 0.00 0.00 96 1005.6
20260507004531 7 7 0.0 0.0 0.00 0.00 0.00 96 1005.6
20260507004029 7 7 0.0 0.0 0.00 0.00 0.00 96 1005.5
20260507003524 7 7 0.0 0.0 0.00 0.00 0.00 97 1005.7
20260507003019 7 7 0.0 0.0 0.00 0.00 0.00 97 1005.6
20260507002516 7 7 0.0 0.0 0.00 0.00 0.00 96 1005.6
20260507002013 7 7 0.0 0.0 0.00 0.00 0.00 96 1005.5
20260507001509 7 7 0.0 4.8 0.00 0.00 0.00 96 1005.5
20260507001007 7 7 0.0 0.0 0.00 0.00 0.00 96 1005.5
20260507000502 7 7 0.0 0.0 0.00 0.00 0.00 96 1005.6
20260506235957 7 6 0.0 0.0 0.00 0.00 0.00 96 1005.7
20260506235455 7 6 0.0 0.0 0.00 0.00 0.00 95 1005.5
20260506234951 7 6 0.0 0.0 0.00 0.00 0.00 95 1005.4
20260506234449 7 6 0.0 0.0 0.00 0.00 0.00 95 1005.6
20260506233946 8 6 0.0 0.0 0.00 0.00 0.00 95 1005.5
20260506233442 8 6 0.0 0.0 0.00 0.00 0.00 95 1005.4
20260506232939 8 6 0.0 0.0 0.00 0.00 0.00 95 1005.3
20260506232435 8 6 0.0 0.0 0.00 0.00 0.00 95 1005.7
20260506231931 8 6 0.0 0.0 0.00 0.00 0.00 95 1005.4
20260506231429 8 356 0.0 3.2 0.00 0.00 0.00 94 1005.5
20260506230926 8 3 3.2 3.2 0.00 0.00 0.00 94 1005.6
20260506230422 8 49 1.6 3.2 0.00 0.00 0.00 95 1005.5
20260506225919 8 50 0.0 0.0 0.00 0.00 0.00 95 1005.5
20260506225416 8 50 0.0 3.2 0.00 0.00 0.00 95 1005.3
20260506224913 8 50 0.0 0.0 0.00 0.00 0.00 94 1005.3
20260506224411 8 50 0.0 0.0 0.00 0.00 0.00 94 1005.5
20260506223906 8 25 0.0 0.0 0.00 0.00 0.00 94 1005.5
20260506223402 9 23 4.8 4.8 0.00 0.00 0.00 94 1005.4
20260506222859 9 22 4.8 4.8 0.00 0.00 0.00 93 1005.4
20260506222355 10 22 3.2 3.2 0.00 0.00 0.00 93 1005.4
20260506221853 10 22 0.0 0.0 0.00 0.00 0.00 92 1005.3
20260506221350 10 22 0.0 0.0 0.00 0.00 0.00 92 1005.1
20260506220848 10 22 0.0 0.0 0.00 0.00 0.00 90 1005.1
20260506220343 10 23 0.0 0.0 0.00 0.00 0.00 91 1005.0
20260506215840 10 108 0.0 0.0 0.00 0.00 0.00 91 1005.2
20260506215336 10 56 0.0 0.0 0.00 0.00 0.00 90 1004.9
20260506214832 10 56 0.0 0.0 0.00 0.00 0.00 89 1005.0
20260506214329 11 56 0.0 0.0 0.00 0.00 0.00 89 1004.9
20260506213827 11 57 0.0 0.0 0.00 0.00 0.00 89 1004.8
20260506213324 11 57 0.0 0.0 0.00 0.00 0.00 89 1005.1
20260506212821 11 57 0.0 0.0 0.00 0.00 0.00 89 1004.8
20260506212317 11 56 0.0 0.0 0.00 0.00 0.00 89 1004.9
20260506211812 11 32 0.0 0.0 0.00 0.00 0.00 89 1004.6
20260506211308 11 5 0.0 0.0 0.00 0.00 0.00 88 1004.6
20260506210806 11 5 0.0 0.0 0.00 0.00 0.00 88 1004.7
20260506210302 11 5 0.0 0.0 0.00 0.00 0.00 88 1004.7
20260506205800 11 5 0.0 0.0 0.00 0.00 0.00 88 1004.8
20260506205255 11 325 0.0 4.8 0.00 0.00 0.00 87 1004.7
20260506204752 11 63 3.2 4.8 0.00 0.00 0.00 85 1004.4
20260506204250 11 358 3.2 4.8 0.00 0.00 0.00 85 1004.6
20260506203747 11 49 3.2 3.2 0.00 0.00 0.00 85 1004.8
20260506203244 11 49 0.0 1.6 0.00 0.00 0.00 85 1004.5
20260506202742 11 71 0.0 0.0 0.00 0.00 0.00 85 1004.6
20260506202238 11 48 0.0 3.2 0.00 0.00 0.00 86 1004.4
20260506201735 11 45 4.8 6.4 0.00 0.00 0.00 85 1004.4
20260506201232 12 45 3.2 3.2 0.00 0.00 0.00 84 1004.6
20260506200729 12 46 0.0 1.6 0.00 0.00 0.00 83 1004.6
20260506200226 12 46 1.6 4.8 0.00 0.00 0.00 83 1004.4
20260506195721 12 76 3.2 9.7 0.00 0.00 0.00 84 1004.3
20260506195218 12 44 0.0 1.6 0.00 0.00 0.00 83 1004.6
20260506194716 12 13 3.2 4.8 0.00 0.00 0.00 82 1004.6
20260506194212 12 356 6.4 6.4 0.00 0.00 0.00 83 1004.5
20260506193710 12 24 8.0 9.7 0.00 0.00 0.00 84 1004.7
20260506193207 12 34 3.2 11.3 0.00 0.00 0.00 83 1004.4
20260506192704 13 15 9.7 11.3 0.00 0.00 0.00 81 1004.5
20260506192200 13 21 9.7 12.9 0.00 0.00 0.00 80 1004.6
20260506191657 13 355 12.9 14.5 0.00 0.00 0.00 80 1004.6
20260506191153 13 339 6.4 12.9 0.00 0.00 0.00 80 1004.5
20260506190650 13 352 9.7 12.9 0.00 0.00 0.00 80 1004.5
20260506190147 13 348 11.3 11.3 0.00 0.00 0.00 80 1004.2
20260506185644 13 2 9.7 11.3 0.00 0.00 0.00 80 1004.1
20260506185140 13 13 6.4 6.4 0.00 0.00 0.00 80 1004.0
20260506184638 13 348 9.7 11.3 0.00 0.00 0.00 80 1004.1
20260506184135 13 23 4.8 6.4 0.00 0.00 0.00 80 1003.8
20260506183631 13 62 0.0 1.6 0.00 0.00 0.00 79 1003.7
20260506183127 13 77 1.6 3.2 0.00 0.00 0.00 79 1003.6
20260506182625 13 68 3.2 4.8 0.00 0.00 0.00 79 1003.5
20260506182122 13 59 0.0 1.6 0.00 0.00 0.00 79 1003.5
20260506181620 13 69 3.2 6.4 0.00 0.00 0.00 78 1003.5
20260506181117 13 52 3.2 6.4 0.00 0.00 0.00 78 1003.2
20260506180614 14 70 3.2 6.4 0.00 0.00 0.00 78 1003.1
20260506180110 14 66 6.4 6.4 0.00 0.00 0.00 78 1003.2
20260506175606 14 55 4.8 9.7 0.00 0.00 0.00 77 1003.2
20260506175102 14 82 6.4 11.3 0.00 0.00 0.00 77 1003.0
20260506174601 14 45 12.9 16.1 0.00 0.00 0.00 77 1003.0
20260506174057 14 65 4.8 11.3 0.00 0.00 0.00 77 1003.2
20260506173555 15 95 6.4 12.9 0.00 0.00 0.00 76 1003.1
20260506173051 15 76 1.6 9.7 0.00 0.00 0.00 76 1003.0
20260506172549 15 98 9.7 11.3 0.00 0.00 0.00 75 1003.0
20260506172045 15 103 4.8 14.5 0.00 0.00 0.00 75 1003.2
20260506171543 15 79 6.4 12.9 0.00 0.00 0.00 75 1003.0
20260506171040 15 76 3.2 12.9 0.00 0.00 0.00 74 1003.1
20260506170537 15 75 8.0 9.7 0.00 0.00 0.00 74 1003.1
20260506170035 15 137 9.7 14.5 0.00 0.00 0.00 73 1003.0
20260506165533 15 101 6.4 9.7 0.00 0.00 0.00 74 1003.0
20260506165029 15 56 6.4 17.7 0.00 0.00 0.00 73 1003.3
20260506164526 15 91 4.8 9.7 0.00 0.00 0.00 73 1003.4
20260506164023 15 44 4.8 9.7 0.00 0.00 0.00 73 1003.2
20260506163519 16 78 11.3 12.9 0.00 0.00 0.00 72 1003.4
20260506163015 16 88 8.0 14.5 0.00 0.00 0.00 71 1003.3
20260506162512 16 57 4.8 9.7 0.00 0.00 0.00 72 1003.2
20260506162009 16 76 6.4 16.1 0.00 0.00 0.00 70 1003.2
20260506161506 16 72 12.9 16.1 0.00 0.00 0.00 69 1003.4
20260506161003 17 95 4.8 17.7 0.00 0.00 0.00 71 1003.2
20260506160501 17 50 8.0 11.3 0.00 0.00 0.00 70 1003.3
20260506155958 17 67 9.7 14.5 0.00 0.00 0.00 70 1003.3
20260506155456 17 84 11.3 14.5 0.00 0.00 0.00 69 1003.3
20260506153622 17 54 6.4 16.1 0.00 0.00 0.00 71 1003.5
20260506153120 17 98 3.2 12.9 0.00 0.00 0.00 72 1003.7
20260506152617 17 70 1.6 12.9 0.00 0.00 0.00 74 1003.6
20260506152114 17 69 6.4 9.7 0.00 0.00 0.00 75 1003.8
20260506151613 17 90 8.0 12.9 0.00 0.00 0.00 75 1003.9
20260506151109 17 59 8.0 12.9 0.00 0.00 0.00 76 1003.8
20260506150606 17 42 4.8 11.3 0.00 0.00 0.00 76 1003.8
20260506145600 17 74 6.4 12.9 0.00 0.00 0.00 74 1003.9
20260506145057 17 106 6.4 11.3 0.00 0.00 0.00 74 1004.0
20260506144554 17 70 3.2 16.1 0.00 0.00 0.00 75 1004.1
20260506144051 17 82 4.8 11.3 0.00 0.00 0.00 74 1004.5
20260506143548 17 54 6.4 14.5 0.00 0.00 0.00 74 1004.3
20260506143047 17 75 1.6 6.4 0.00 0.00 0.00 74 1004.7
20260506142544 17 63 4.8 4.8 0.00 0.00 0.00 72 1004.7
20260506142042 17 98 0.0 1.6 0.00 0.00 0.00 72 1005.0
20260506141539 18 90 0.0 6.4 0.00 0.00 0.00 71 1004.8
20260506141038 18 88 1.6 3.2 0.00 0.00 0.00 66 1005.1
20260506140535 19 112 3.2 4.8 0.00 0.00 0.00 63 1005.0
20260506140032 19 57 0.0 0.0 0.00 0.00 0.00 62 1004.9
20260506135529 19 59 1.6 3.2 0.00 0.00 0.00 61 1004.6
20260506135025 19 67 1.6 6.4 0.00 0.00 0.00 61 1004.5
20260506134521 20 75 4.8 9.7 0.00 0.00 0.00 59 1004.4
20260506134017 20 41 6.4 9.7 0.00 0.00 0.00 59 1004.5
20260506133515 20 108 4.8 11.3 0.00 0.00 0.00 59 1004.7
20260506133012 20 109 1.6 4.8 0.00 0.00 0.00 59 1004.7
20260506132509 20 100 0.0 9.7 0.00 0.00 0.00 57 1004.9
20260506132006 20 95 1.6 12.9 0.00 0.00 0.00 58 1004.8
20260506131503 20 131 9.7 12.9 0.00 0.00 0.00 57 1004.8
20260506130959 20 172 9.7 20.9 0.00 0.00 0.00 58 1005.0
20260506130456 20 107 14.5 20.9 0.00 0.00 0.00 58 1005.0
20260506125954 20 145 4.8 9.7 0.00 0.00 0.00 59 1004.9
20260506125452 19 148 14.5 17.7 0.00 0.00 0.00 59 1005.3
20260506124949 19 100 14.5 20.9 0.00 0.00 0.00 59 1005.3
20260506124447 19 111 8.0 22.5 0.00 0.00 0.00 59 1005.3
20260506123945 19 116 8.0 14.5 0.00 0.00 0.00 59 1005.4
20260506123443 19 66 8.0 11.3 0.00 0.00 0.00 59 1005.5
20260506122940 20 157 9.7 14.5 0.00 0.00 0.00 57 1005.6
20260506122437 19 101 9.7 12.9 0.00 0.00 0.00 58 1005.6
20260506121935 19 83 1.6 11.3 0.00 0.00 0.00 58 1005.7
20260506121432 19 77 14.5 22.5 0.00 0.00 0.00 57 1005.8
20260506120929 19 114 8.0 11.3 0.00 0.00 0.00 56 1005.8
20260506120426 20 113 1.6 16.1 0.00 0.00 0.00 57 1005.9
20260506115923 19 55 4.8 9.7 0.00 0.00 0.00 56 1005.9
20260506115421 19 136 9.7 14.5 0.00 0.00 0.00 57 1005.9
20260506114919 20 144 8.0 14.5 0.00 0.00 0.00 55 1006.0
20260506114416 20 91 0.0 6.4 0.00 0.00 0.00 56 1006.0
20260506113915 20 221 3.2 22.5 0.00 0.00 0.00 55 1005.7
20260506113412 19 115 4.8 14.5 0.00 0.00 0.00 57 1005.8
20260506112909 19 92 24.1 27.4 0.00 0.00 0.00 55 1005.9
20260506112407 18 49 3.2 14.5 0.00 0.00 0.00 57 1006.1
20260506111904 18 77 6.4 20.9 0.00 0.00 0.00 58 1006.1
20260506111402 18 84 1.6 14.5 0.00 0.00 0.00 56 1006.2
20260506110858 18 94 3.2 11.3 0.00 0.00 0.00 57 1006.5
20260506110356 18 111 9.7 16.1 0.00 0.00 0.00 57 1006.3
20260506105852 18 86 1.6 20.9 0.00 0.00 0.00 57 1006.5
20260506105349 18 116 3.2 11.3 0.00 0.00 0.00 57 1006.5
20260506104847 18 113 9.7 22.5 0.00 0.00 0.00 58 1006.4
20260506104344 18 146 6.4 14.5 0.00 0.00 0.00 57 1006.4
20260506103842 17 88 9.7 12.9 0.00 0.00 0.00 57 1006.5
20260506103339 17 75 9.7 20.9 0.00 0.00 0.00 58 1006.4
20260506102836 17 92 4.8 9.7 0.00 0.00 0.00 57 1006.8
20260506102334 17 75 9.7 12.9 0.00 0.00 0.00 58 1006.6
20260506101831 17 96 17.7 25.7 0.00 0.00 0.00 58 1006.6
20260506101327 17 46 11.3 14.5 0.00 0.00 0.00 57 1006.9
20260506100825 17 106 8.0 14.5 0.00 0.00 0.00 58 1006.8
20260506100323 17 104 11.3 22.5 0.00 0.00 0.00 57 1006.8
20260506095821 17 41 4.8 6.4 0.00 0.00 0.00 58 1006.8
20260506095318 16 90 3.2 11.3 0.00 0.00 0.00 59 1006.9
20260506094815 16 72 9.7 14.5 0.00 0.00 0.00 59 1006.9
20260506094314 16 71 1.6 11.3 0.00 0.00 0.00 60 1006.8
20260506093811 16 116 12.9 17.7 0.00 0.00 0.00 59 1006.7
20260506093308 16 73 16.1 20.9 0.00 0.00 0.00 59 1007.0
20260506092806 16 146 12.9 17.7 0.00 0.00 0.00 59 1007.2
20260506092306 16 113 9.7 16.1 0.00 0.00 0.00 59 1006.9
20260506091801 16 125 17.7 27.4 0.00 0.00 0.00 60 1006.6
20260506091258 16 41 6.4 30.6 0.00 0.00 0.00 61 1006.7
20260506090756 16 138 12.9 16.1 0.00 0.00 0.00 60 1006.7
20260506090253 15 34 16.1 22.5 0.00 0.00 0.00 61 1006.6
20260506085749 15 31 4.8 20.9 0.00 0.00 0.00 62 1006.8
20260506085246 16 59 20.9 29.0 0.00 0.00 0.00 61 1006.6
20260506084742 15 28 17.7 22.5 0.00 0.00 0.00 63 1006.5
20260506084238 15 78 8.0 17.7 0.00 0.00 0.00 62 1006.8
20260506083736 15 60 3.2 12.9 0.00 0.00 0.00 64 1006.6
20260506083233 15 48 11.3 20.9 0.00 0.00 0.00 62 1006.8
20260506082731 15 40 14.5 22.5 0.00 0.00 0.00 63 1007.1
20260506082226 15 35 12.9 22.5 0.00 0.00 0.00 64 1007.1
20260506081724 15 98 9.7 24.1 0.00 0.00 0.00 63 1006.9
20260506081221 15 93 8.0 12.9 0.00 0.00 0.00 64 1007.1
20260506080719 15 39 3.2 12.9 0.00 0.00 0.00 65 1007.1
20260506080215 15 91 4.8 9.7 0.00 0.00 0.00 66 1007.1
20260506073159 13 94 6.4 17.7 0.00 0.00 0.00 69 1007.3
20260506072656 13 70 8.0 24.1 0.00 0.00 0.00 70 1007.3
20260506072154 13 27 19.3 25.7 0.00 0.00 0.00 71 1007.5
20260506071651 13 47 14.5 16.1 0.00 0.00 0.00 71 1007.5
20260506071148 13 38 9.7 24.1 0.00 0.00 0.00 72 1007.4
20260506070645 13 44 4.8 12.9 0.00 0.00 0.00 72 1007.3
20260506070142 12 52 8.0 17.7 0.00 0.00 0.00 72 1007.5